Showing default

USA 12, 16117

Orbit data source: Space-Track

USA 12, 16117 is an American payload satellite in GEO that was launched on Thu, 03 Oct 1985 UTC via an SPACE SHUTTLE launch vehicle from the Air Force Eastern Test Range (AFETR). Payload-class satellites include a variety of spacecraft equipped with specific instruments for various scientific and technological missions. These include communications satellites like Starlink; space stations such as the ISS; scientific satellites like the Hubble; Earth observation satellites from companies like Planet Labs, Umbra, and HawkEye 360; GPS; miniature CubeSats for education and research; and military/defense satellites.

Loading next visibility...
Identifier
16117, 1985-092C
Orbit
GEO
Country
Flag of USUS
Related business
Manufacturer
GE/MSVD
Mission
Spacecraft
Bus & Motor
DSCS III, AOCS
Mass
~1,170 kg wet, 893 kg dry
Launch date (UTC)
1985-10-03 (40 years ago)
Launch vehicle
SPACE SHUTTLE
Launch site
Air Force Eastern Test Range (AFETR)
Object type
Payload
Rocket body
Debris
Shape & HBR
Unknown
Radar Cross Section
RCS unknown

Expand to show TLE details & history
Last TLE update: 8 hours ago

TLE from 8 hours ago
0 USA 12
1 16117U 85092C   25346.97465360 -.00000113  00000-0  00000-0 0  9996
2 16117  14.3858 347.6537 0002733 149.2304 220.2545  0.98988885 23884
Epoch: 2025-12-12T23:23Z
TLE epoch observation values (Epoch: 2025-12-12T23:23:30.071Z)
Latitude
2.34808°
Longitude
-75.96526°
Altitude
36,158.228 km
Speed
3.061 km/s
True Right ascension
23h 47m 16s
True Declination
2° 20' 45"
Sunlit
Object was in daylight at epoch
Visualization orbit readout
Latitude
Unknown
Longitude
Unknown
Altitude
Unknown
Speed
Unknown
Apparent Right ascension
Unknown
Apparent Declination
Unknown
Sunlit
N/A
Visualization observer readout
Local Sidereal Time
05:23:39
Azimuth
Unknown
Elevation
Unknown
Doppler factor
Unknown
Orbital elements
Apogee altitude
36,162.706 km
Perigee altitude
36,139.46 km
Semi-major axis
42,529.22 km
Eccentricity
0.00027
Inclination
14.3858°
RAAN
347.6537°
Arg. of periapsis
149.2304°
True anomaly
220.23427°
Mean anomaly
220.2545°
Eccentric anomaly
220.24438°
Mean motion
0.24746 °/min
Orbital period
1,454.76 mins
BSTAR
0
Loading maneuver chart data...
Computing Atmospheric mass density...
Loading historical data...
Loading historical data...
Loading historical data...
Loading historical data...
Loading historical data...
Loading historical data...
Loading historical data...
Other satellites on launch #92 in the year 1985 (1985-10-03 UTC)

Documentation

Showing up to 5 results
|